KSZY

Details ICAO KSZY
Name ROBERT SIBLEY
Region United States
Timezone America/Chicago (UTC-5.0)
Plans Departing 4
Arriving 3
Stats Elevation 610 ft / 186 m (AMSL)
Location 35.202891° -88.498214°
Runways 1
Magnetic Variation 2.464° W
Sunrise 2018-05-25 10:45:04 UTC / 2018-05-25 05:45:04 Local
Sunset 2018-05-26 00:59:43 UTC / 2018-05-25 19:59:43 Local
Advertisement - Login to hide

Runways

ID Width Length Bearing (true) Bearing (mag) Surface Threshold Offset Overrun Length
17 75 ft / 23 m 5,013 ft / 1,528 m 164.95° 167.41° Asphalt 0 ft / 0 m 0 ft / 0 m
35 75 ft / 23 m 5,013 ft / 1,528 m 344.95° 347.41° Asphalt 0 ft / 0 m 287 ft / 87 m

Map

Weather


0- 5 10 15 20 25 30 35+ Temperature / ° C

Clouds and Precipitation
Forecast for 2018-05-25 12:00 UTC. Updated 11 minutes ago

Ground ~20,000 ft ~40,000 ft Winds

METAR

KSZY 251115Z AUTO 00000KT 7SM CLR 20/19 A3001 RMK A01

TAF

Not found

Frequencies

Recorded 118.42 MHz AWOS 3
Unicom 122.70 MHz CTAF/UNICOM
Warning: Do not use this data for real-world aviation or navigation. No guarantee of current accuracy is given.